Galena, Illinois, United States (61036)
Lat: 42.42N, Lon: 90.43W
Wx Zone: ILZ001
Local Info
Past Weather Observations for Today

NOTE: This archive is for the closest National Weather Service station to Galena. Information may differ from the station used for current weather conditions.

Time Weather Temperature Dewpoint Humidity Pressure Winds Precip Visibility
18:53
Clear
43°F / 6°C 34°F / 1°C 71% 30.24 in
(1024 mb)
NNW 9.2 mph
(NNW 15 kph)
- 10SM
17:53
Clear
48°F / 9°C 36°F / 2°C 62% 30.24 in
(1024 mb)
N 11.5 mph
(N 19 kph)
- 10SM
16:53
Clear
52°F / 11°C 36°F / 2°C 54% 30.21 in
(1023 mb)
NW 10.4 mph
(NW 17 kph)
- 10SM
15:53
Clear
52°F / 11°C 36°F / 2°C 54% 30.21 in
(1023 mb)
WNW 10.4 mph
(WNW 17 kph)
- 10SM
14:53
Clear
52°F / 11°C 36°F / 2°C 54% 30.21 in
(1023 mb)
NW 8.1 mph
(NW 13 kph)
- 10SM
13:53
Partly Cloudy
52°F / 11°C 37°F / 3°C 58% 30.21 in
(1023 mb)
W 12.7 mph
(W 20 kph)
- 10SM
12:53
Partly Cloudy
50°F / 10°C 37°F / 3°C 62% 30.21 in
(1023 mb)
SSW 11.5 mph
(SSW 19 kph)
- 10SM
12:23
Partly Cloudy
50°F / 10°C 36°F / 2°C 58% 30.21 in
(1023 mb)
SSW 12.7 mph
(SSW 20 kph)
- 10SM
11:53
Mostly Cloudy
48°F / 9°C 36°F / 2°C 62% 30.21 in
(1023 mb)
NW 13.8 mph
(NW 22 kph)
- 10SM
11:29
Mostly Cloudy
46°F / 8°C 36°F / 2°C 66% 30.21 in
(1023 mb)
W 10.4 mph
(W 17 kph)
- 10SM
10:53
Partly Cloudy
46°F / 8°C 36°F / 2°C 66% 30.21 in
(1023 mb)
NW 11.5 mph
(NW 19 kph)
- 10SM
10:18
Partly Cloudy
45°F / 7°C 34°F / 1°C 66% 30.21 in
(1023 mb)
NW 10.4 mph
(NW 17 kph)
- 10SM
10:01
Overcast
43°F / 6°C 34°F / 1°C 71% 30.18 in
(1022 mb)
W 13.8 mph
(W 22 kph)
- 10SM
09:53
Mostly Cloudy
43°F / 6°C 34°F / 1°C 71% 30.18 in
(1022 mb)
W 12.7 mph
(W 20 kph)
- 10SM
08:53
Overcast
37°F / 3°C 32°F / 0°C 81% 30.15 in
(1021 mb)
W 16.1 mph
(W 26 kph)
- 10SM
08:36
Overcast
37°F / 3°C 32°F / 0°C 81% 30.15 in
(1021 mb)
WNW 18.4 mph
(WNW 30 kph)
- 10SM
07:53
Overcast
36°F / 2°C 32°F / 0°C 87% 30.15 in
(1021 mb)
WNW 18.4 mph
(WNW 30 kph)
- 10SM
06:53
Overcast
36°F / 2°C 30°F / -1°C 81% 30.09 in
(1019 mb)
W 20.7 mph
(W 33 kph)
- 8SM
06:44
Overcast
36°F / 2°C 30°F / -1°C 81% 30.09 in
(1019 mb)
W 21.9 mph
(W 35 kph)
- 8SM
05:53
Overcast
36°F / 2°C 32°F / 0°C 87% 30.06 in
(1018 mb)
SSW 20.7 mph
(SSW 33 kph)
- 9SM
05:34
Overcast
36°F / 2°C 32°F / 0°C 87% 30.04 in
(1017 mb)
W 23 mph
(W 37 kph)
- 10SM
05:19
Overcast
37°F / 3°C 32°F / 0°C 81% 30.04 in
(1017 mb)
W 19.6 mph
(W 32 kph)
- 10SM
04:53
Overcast
37°F / 3°C 34°F / 1°C 87% 30.04 in
(1017 mb)
SSW 17.3 mph
(SSW 28 kph)
- 10SM
04:13
Overcast
41°F / 5°C 37°F / 3°C 87% 30.01 in
(1016 mb)
SSW 20.7 mph
(SSW 33 kph)
- 7SM
04:05
Overcast
43°F / 6°C 37°F / 3°C 81% 30.01 in
(1016 mb)
SSW 20.7 mph
(SSW 33 kph)
- 9SM
03:53
Overcast
43°F / 6°C 32°F / 0°C 66% 29.98 in
(1015 mb)
SW 13.8 mph
(SW 22 kph)
- 10SM
03:31
Mostly Cloudy
43°F / 6°C 30°F / -1°C 61% 29.98 in
(1015 mb)
SW 13.8 mph
(SW 22 kph)
- 10SM
02:53
Clear
41°F / 5°C 28°F / -2°C 61% 29.98 in
(1015 mb)
SSE 16.1 mph
(SSE 26 kph)
- 10SM
01:53
Partly Cloudy
43°F / 6°C 28°F / -2°C 57% 29.95 in
(1014 mb)
S 17.3 mph
(S 28 kph)
- 10SM
00:53
Mostly Cloudy
45°F / 7°C 28°F / -2°C 53% 29.95 in
(1014 mb)
S 21.9 mph
(S 35 kph)
- 10SM
Time Weather Temperature Dewpoint Humidity Pressure Winds Precip Visibility


Weather for websites

WeatherForYou.com, LLC is not responsible for any damages or problems caused by this service. Current weather conditions are obtained from the closest station including government and personal stations which may have varying degrees of accuracy. Weather forecasts are derived from the NOAA NDFD. Like all things, this site belongs to Jesus Christ... He just trusts me to maintain it. If you have any questions or comments email webmaster@weatherforyou.com

Copyright © 2014, WeatherForYou.com LLC. All rights reserved.